Theta_e
351 349 347 348 346 345 341 340 339 337 335 334 335 335 337 337 338 336 336 334 332 328 319 316 315 314 314 315 315 315 314 313 312 312 312 311 311 311 310 310 310 310 309 309 310 310 310 310 311 311 311 314 321 329 332 331 330 330 333 335 335 335 335 336 337 337 336 336 336 337 336 337 337 337 337 336 333 331 332 331 327 327 330 331 331
349 348 347 347 345 343 340 339 337 335 334 334 336 336 337 338 338 337 336 334 332 328 320 316 315 314 314 314 315 315 315 314 313 313 312 311 311 311 310 310 310 309 310 309 310 310 310 310 311 312 312 314 318 327 331 330 329 332 335 335 335 336 336 336 336 336 336 336 336 336 336 337 337 337 336 331 325 320 323 325 325 327 331 332 331
348 347 347 345 344 342 339 337 335 334 333 335 336 337 338 339 339 337 336 334 333 329 321 317 316 315 314 314 315 315 315 315 313 313 312 312 311 311 311 310 310 310 310 309 310 310 310 310 312 313 314 316 318 323 329 328 330 334 335 336 336 336 336 337 337 336 336 336 336 337 337 336 336 336 332 325 320 317 315 317 319 323 329 330 330
348 347 346 344 342 340 338 335 334 333 334 336 337 338 339 339 339 337 337 335 334 331 325 320 317 316 315 314 314 314 315 315 314 313 313 312 311 310 311 310 310 310 310 309 310 310 310 310 312 314 315 317 319 323 327 328 331 334 336 336 335 335 335 335 335 336 336 335 335 335 334 334 335 335 331 324 320 318 314 314 316 320 325 326 328
348 346 344 343 341 339 337 335 333 333 334 336 337 339 339 340 339 338 337 336 335 333 330 324 321 319 317 315 314 314 314 315 315 314 314 312 311 310 311 310 310 310 310 309 310 310 310 310 311 313 316 318 320 323 326 327 330 334 335 333 332 331 331 332 333 333 333 333 334 333 331 328 328 330 329 323 317 317 316 313 314 316 319 322 324
346 344 343 341 340 338 336 334 333 333 335 336 338 339 340 340 339 338 337 336 336 334 333 330 326 323 320 317 314 314 314 314 315 314 314 313 311 311 311 310 310 311 310 310 310 310 310 310 310 311 314 317 320 323 324 326 330 334 333 329 329 331 331 332 332 333 332 334 334 333 330 324 320 321 322 319 315 316 316 314 313 313 313 316 318
346 343 341 340 339 337 335 333 332 333 335 336 338 340 340 340 339 339 338 338 337 335 335 334 331 328 325 321 316 314 314 315 315 314 314 313 311 311 311 310 310 311 311 310 310 309 310 310 310 311 312 314 317 320 323 326 328 332 331 327 329 331 331 331 332 333 333 335 336 334 332 325 317 316 318 316 315 315 315 314 313 312 313 313 312
347 342 339 338 338 337 334 332 331 332 333 336 339 339 340 340 340 339 338 338 337 336 335 335 334 333 330 326 322 317 315 314 314 314 314 313 311 311 311 310 310 311 313 312 311 309 310 310 310 310 311 312 314 317 320 323 325 328 327 326 330 332 332 333 333 333 333 335 335 335 333 324 314 314 318 315 315 317 315 313 313 312 313 313 312
347 344 340 338 337 337 333 330 329 330 332 335 338 339 340 340 340 340 339 339 338 337 335 335 335 335 334 331 327 322 318 315 315 315 315 315 311 311 312 311 311 312 313 314 313 311 310 310 309 310 310 311 312 313 315 318 321 322 322 325 331 332 331 332 332 333 334 335 333 332 329 320 310 311 316 313 314 317 313 311 312 312 312 312 312
346 345 344 340 337 336 332 328 328 329 331 334 337 339 340 341 341 340 340 340 339 338 336 336 335 335 335 334 332 328 323 318 315 314 315 316 312 311 312 312 313 314 314 315 315 312 311 310 309 309 310 310 311 311 312 314 316 317 322 328 330 329 329 329 330 331 333 333 331 329 324 315 310 309 311 310 311 312 311 310 310 310 311 311 312
346 345 345 341 336 334 328 326 326 328 331 334 336 338 340 341 341 341 340 340 339 338 337 336 336 336 335 335 334 331 328 323 318 315 316 316 313 312 313 314 315 316 316 315 316 314 313 311 310 309 309 310 310 311 311 312 313 318 327 331 331 330 331 331 331 332 330 327 326 325 318 311 309 309 309 309 309 309 310 309 308 309 309 309 310
346 345 345 342 336 331 325 324 325 328 331 333 335 336 338 339 339 340 340 340 339 338 337 337 336 336 335 335 333 333 331 326 321 317 317 317 313 314 315 316 318 319 317 316 316 315 314 313 311 311 310 310 310 311 311 311 314 323 331 332 332 332 332 332 332 333 330 325 321 317 312 309 310 309 309 309 309 309 308 308 308 308 308 308 308
346 345 345 341 334 327 322 323 325 326 330 331 332 333 335 338 339 340 340 340 339 338 337 336 336 335 335 334 331 334 333 326 324 320 318 318 314 315 317 318 320 321 319 316 315 315 315 314 313 312 312 311 310 310 310 312 319 328 331 332 332 332 332 333 333 332 330 325 319 314 310 310 310 309 309 309 309 309 309 308 308 308 308 308 308
345 345 345 339 333 326 321 324 324 326 329 329 329 331 335 337 339 340 340 339 338 338 337 336 335 334 334 333 331 334 332 324 325 323 319 318 316 316 317 318 321 323 321 317 316 316 315 314 313 314 313 313 312 311 311 315 322 327 329 330 332 332 332 331 333 333 329 322 314 311 310 310 310 310 310 310 310 309 309 309 308 308 309 309 309
345 345 343 335 330 327 323 324 324 326 328 328 329 330 333 335 338 340 339 338 338 337 336 335 334 333 333 333 335 337 334 329 326 323 319 317 316 317 318 319 322 324 321 318 317 316 315 315 314 314 313 313 313 312 312 316 320 324 328 331 332 333 333 333 333 333 329 320 312 310 310 310 310 310 310 310 310 310 310 309 309 309 309 309 310
344 345 342 330 326 330 330 328 326 327 330 330 329 329 331 334 337 338 338 338 338 337 335 333 332 333 335 337 339 338 337 333 326 321 319 317 317 318 320 321 322 323 322 320 319 317 316 316 316 315 314 314 314 313 313 315 319 324 329 332 333 334 334 334 333 333 331 320 311 309 309 310 310 311 310 310 310 310 310 310 310 309 309 309 310
344 344 341 329 325 332 333 332 330 331 333 332 331 329 328 331 333 334 336 336 336 334 332 331 333 336 337 339 339 337 336 330 324 321 319 318 319 319 321 323 322 321 322 322 320 319 318 318 319 319 318 316 315 314 314 315 319 324 329 332 334 335 335 335 335 335 333 321 310 308 309 309 309 310 310 310 310 310 311 310 310 310 310 309 310
344 343 341 331 326 332 334 333 332 334 335 333 332 330 327 329 330 332 334 334 333 332 331 333 336 339 339 338 337 336 332 326 322 322 320 319 320 320 322 324 322 321 323 324 322 321 321 321 322 322 322 320 318 317 316 316 319 324 327 330 332 333 333 334 336 335 333 323 313 309 308 309 309 309 310 310 310 310 310 310 310 310 310 309 309
343 341 339 334 331 334 335 334 333 335 336 334 332 329 327 329 330 331 332 332 331 332 333 336 339 340 338 336 336 335 330 324 322 321 320 320 321 320 324 326 323 322 325 326 325 324 324 325 324 324 325 323 322 320 319 318 320 323 326 329 331 332 332 333 335 332 330 323 314 311 309 309 309 309 309 309 310 310 310 310 310 310 310 310 309
343 340 335 335 336 336 335 334 334 335 336 335 331 328 328 329 330 331 332 333 332 333 336 338 339 338 335 332 332 333 330 326 322 322 321 320 322 323 324 326 324 323 325 326 327 326 325 325 325 325 326 326 325 324 322 320 320 322 327 332 334 334 333 334 334 330 327 321 314 312 312 311 310 309 309 309 309 309 309 310 309 309 309 309 309
342 340 335 334 336 336 336 335 334 335 336 335 331 328 326 328 329 331 331 332 333 335 336 337 337 335 333 330 330 331 331 328 324 325 326 322 321 322 324 326 326 325 324 326 327 327 326 325 324 324 325 325 326 325 325 323 322 323 326 331 332 332 333 333 333 330 324 318 314 313 313 313 312 311 310 309 308 308 308 308 308 308 308 308 309
341 340 337 336 337 336 335 335 334 334 335 334 332 327 324 326 329 329 329 330 332 334 335 335 334 333 331 331 331 332 331 328 327 330 330 326 323 321 323 324 326 326 323 325 327 326 327 325 323 323 324 324 325 325 325 324 323 323 324 327 330 333 334 333 333 332 324 316 315 315 315 315 314 312 311 310 310 309 308 307 307 307 307 307 308
341 340 339 338 339 337 335 335 334 334 334 334 333 325 321 325 328 328 328 329 331 332 333 334 334 333 332 331 332 333 332 329 331 332 331 331 329 326 324 322 323 324 323 325 326 326 326 325 324 323 323 323 323 325 325 325 324 325 324 327 332 334 335 334 333 332 325 319 318 317 316 317 315 314 312 311 311 309 309 308 307 307 306 306 306
341 340 340 339 338 337 336 336 335 335 334 335 333 325 323 324 324 327 329 330 331 332 334 334 334 334 332 332 333 334 333 332 334 334 333 333 332 331 328 325 323 322 322 325 326 327 326 324 324 323 324 324 324 326 327 326 326 327 326 330 334 334 334 334 333 331 326 322 323 321 319 318 317 317 315 313 312 311 310 309 308 307 306 306 306
341 340 340 339 338 338 337 336 336 336 335 335 334 329 327 324 322 327 330 332 333 334 335 335 335 334 333 334 334 334 333 333 334 334 334 333 332 332 330 329 328 322 320 322 326 327 326 325 324 324 326 326 325 329 331 329 328 328 327 333 335 333 332 333 332 330 326 323 325 325 322 320 320 319 318 316 314 311 311 310 309 308 307 307 306
341 340 340 339 337 338 338 337 336 337 337 336 335 332 330 326 323 328 332 334 335 336 335 335 335 333 333 334 333 334 333 333 334 333 334 333 333 333 331 330 330 325 320 319 323 326 326 325 324 326 328 328 330 333 334 331 330 330 331 335 334 331 330 330 332 330 327 325 325 325 324 323 322 321 320 318 316 313 311 311 310 309 308 307 307
341 340 340 339 338 338 338 338 337 337 337 336 335 333 332 329 326 331 335 336 336 336 336 335 335 333 333 333 332 333 333 333 334 333 334 334 335 334 332 329 327 325 320 318 319 322 324 323 323 327 329 330 332 331 332 333 332 331 333 333 330 330 330 328 331 331 328 326 326 326 325 325 324 323 322 321 319 316 313 312 311 310 309 308 308
341 340 340 339 339 338 338 339 338 337 336 336 335 334 333 332 331 333 336 336 336 337 336 334 335 334 333 332 332 333 333 334 334 333 334 335 335 334 332 330 329 326 321 322 322 320 321 325 327 328 327 327 328 328 331 333 331 331 332 331 327 328 330 329 330 330 328 327 326 327 326 326 325 324 324 322 321 318 316 314 313 312 310 309 309
336 337 340 340 339 338 338 339 338 337 336 335 335 334 335 335 334 333 334 334 335 336 335 334 334 334 333 332 332 332 333 334 333 334 334 334 333 332 332 332 333 329 327 329 329 325 325 330 331 327 323 322 325 329 331 331 330 330 330 330 327 327 329 328 328 327 327 326 326 328 327 326 325 325 324 323 322 320 318 316 314 313 312 310 309
332 332 336 339 339 338 338 338 338 337 336 335 335 334 335 334 334 334 334 333 333 335 335 334 334 333 332 332 332 332 334 334 333 334 333 332 332 333 332 332 332 331 332 332 331 331 330 330 329 324 323 325 326 330 331 330 330 329 329 330 329 327 327 326 328 328 326 326 326 328 328 327 325 325 325 324 323 322 320 318 315 313 312 311 310
336 333 334 337 339 339 338 337 338 337 336 335 333 332 332 331 332 333 333 333 333 334 334 334 333 332 332 333 333 332 333 333 333 334 333 333 334 334 334 333 333 333 333 333 332 333 329 327 325 323 327 330 330 332 332 331 330 329 329 330 329 328 327 325 328 329 326 325 328 330 329 327 326 325 325 325 325 324 321 318 316 314 313 312 311
339 335 334 336 339 339 337 338 337 336 336 333 331 331 331 330 332 333 332 334 334 334 334 334 333 333 332 332 332 330 331 334 334 334 334 335 335 334 335 335 334 333 334 333 332 330 324 323 324 326 331 332 332 333 332 331 331 330 329 329 329 329 329 326 327 327 326 327 328 329 328 328 327 325 325 326 327 325 322 318 316 315 313 312 311
339 337 336 337 339 339 337 338 336 335 336 332 330 331 330 331 334 333 333 335 334 334 334 334 334 333 332 332 330 329 331 334 335 334 335 335 334 333 334 335 334 333 332 329 326 324 323 325 327 330 332 334 334 333 333 331 330 331 330 330 329 329 330 327 325 325 326 326 325 327 328 328 328 326 325 326 327 326 323 320 319 317 314 312 310
339 338 338 338 339 339 336 337 335 335 336 333 330 330 329 333 335 334 335 336 334 334 334 334 334 334 334 333 330 330 332 334 334 333 334 333 333 334 334 334 334 332 328 325 324 325 327 330 329 329 331 333 333 333 334 332 331 332 331 331 331 329 329 327 326 326 326 326 325 326 328 328 329 328 326 325 326 327 325 324 323 321 318 315 314
340 338 338 338 338 338 336 336 336 335 335 333 332 330 331 335 336 335 336 335 333 333 333 333 334 333 333 333 331 331 331 331 330 330 331 331 331 332 333 334 332 329 327 326 327 329 331 332 330 330 331 332 332 333 333 332 332 333 332 330 329 328 327 327 328 327 327 327 326 326 326 327 329 330 328 325 324 326 327 326 325 325 324 320 317
340 339 337 337 336 336 336 336 336 336 335 334 333 332 334 336 336 336 336 335 334 333 331 332 333 332 332 331 330 329 328 328 327 325 329 330 328 329 331 332 330 328 328 328 330 333 334 332 331 332 331 332 333 333 333 332 331 332 332 329 327 327 327 328 329 328 328 327 326 326 326 328 329 329 329 328 325 323 326 327 326 327 328 326 322
339 339 337 337 337 335 336 336 336 337 336 335 335 335 336 336 336 337 336 335 335 334 331 332 334 333 332 331 330 329 327 327 328 327 329 329 328 329 330 330 329 329 328 329 332 334 334 333 333 334 332 333 333 332 333 333 332 331 332 331 329 329 328 328 329 329 329 327 327 327 327 328 328 328 329 328 327 323 323 326 326 327 328 328 327
337 338 336 336 336 335 336 337 337 337 336 336 336 336 336 336 337 336 336 336 335 334 331 331 333 333 333 332 331 331 331 331 331 330 330 328 328 329 330 331 330 329 328 329 333 334 333 333 334 334 333 333 332 332 333 333 333 333 333 331 330 330 329 329 329 328 328 327 327 327 327 328 328 328 328 328 328 325 322 323 325 326 326 327 328
337 338 337 336 336 336 336 337 337 337 337 336 337 337 336 336 336 336 336 335 334 333 332 332 332 332 332 333 332 332 332 332 331 330 330 328 328 330 330 330 329 329 327 329 333 335 333 331 332 332 333 333 332 333 333 333 333 332 331 330 330 330 329 329 328 327 328 327 326 328 329 328 328 327 328 328 327 326 326 326 326 325 325 326 327
337 338 338 337 337 336 336 337 337 337 337 337 337 337 336 336 336 336 336 335 333 334 333 332 332 332 332 332 333 332 332 332 330 330 330 328 329 329 329 329 326 327 327 328 332 334 333 331 331 332 332 332 332 332 332 332 332 331 331 330 330 330 329 329 328 327 328 327 327 328 328 328 328 327 328 328 327 327 327 327 328 326 324 325 326
337 338 337 338 338 337 337 337 337 338 338 337 337 337 337 337 336 336 336 335 334 334 333 332 331 332 332 332 333 332 331 331 331 330 328 328 329 328 329 329 326 326 327 328 332 334 332 330 330 330 330 330 331 331 331 332 332 331 330 330 329 329 329 329 328 328 327 327 328 329 327 328 328 328 328 328 327 327 327 327 328 327 325 324 325
338 338 338 337 337 337 337 337 337 337 338 337 337 337 337 336 336 336 336 335 335 334 333 333 332 332 332 332 332 331 330 331 330 330 329 328 329 328 328 328 326 327 328 329 333 334 332 330 329 328 328 328 329 330 330 332 331 330 330 329 329 329 329 329 329 329 328 327 328 328 327 328 329 328 328 328 327 327 327 327 328 327 326 326 326
338 338 338 337 337 337 336 335 335 335 336 337 336 336 336 336 336 336 335 335 334 333 333 333 332 332 332 332 332 331 331 331 330 330 328 327 328 329 328 326 328 329 330 331 333 333 331 330 329 328 329 329 330 330 329 331 331 330 330 330 329 329 330 329 328 328 329 328 328 328 327 328 328 328 328 328 328 328 328 328 328 327 327 326 326
338 338 338 337 336 335 334 334 334 334 334 336 336 336 336 336 336 335 335 334 333 333 333 332 332 332 332 332 330 330 331 331 330 327 327 327 327 328 328 328 329 330 331 332 331 330 330 329 329 329 331 331 331 330 329 330 330 330 330 330 330 329 330 330 329 328 329 329 329 329 328 328 328 328 328 327 327 328 328 328 328 327 327 326 326
336 336 335 334 333 333 332 333 334 333 333 334 336 337 336 335 335 335 334 333 332 332 332 332 332 331 331 332 330 330 330 329 327 326 327 328 327 329 329 329 330 331 331 331 329 329 329 329 329 330 332 332 332 331 329 329 330 330 330 330 330 330 330 330 329 329 329 329 329 329 328 328 328 328 328 328 327 328 328 328 327 327 326 326 326
333 335 333 333 334 333 333 333 333 333 333 335 336 336 335 334 334 334 334 333 332 332 332 332 331 330 331 331 329 329 328 326 327 328 329 329 328 329 328 328 330 330 329 329 329 330 329 329 329 330 331 331 331 331 330 329 329 329 329 329 329 330 330 330 329 329 329 329 329 329 329 328 328 328 328 328 328 328 328 327 326 327 327 326 326
331 334 333 334 335 333 333 333 333 333 333 335 336 336 335 334 334 334 334 333 333 332 332 331 330 330 329 329 329 329 327 327 328 329 330 330 329 329 328 329 331 329 328 329 329 330 330 330 330 329 330 331 330 331 330 329 328 329 329 329 328 328 329 330 330 329 328 329 329 328 328 328 328 328 328 328 328 328 327 327 326 327 327 327 326
331 335 334 334 334 331 330 331 333 333 332 334 336 335 335 334 334 334 333 333 333 331 331 331 330 328 327 328 328 327 327 328 329 328 329 329 329 330 329 331 331 329 329 329 328 329 330 330 330 329 330 330 330 330 329 329 330 330 329 329 328 327 327 329 329 329 328 329 329 328 328 328 328 328 328 328 328 327 327 327 327 326 326 326 326
332 336 335 334 333 329 328 332 335 335 333 334 335 335 334 334 333 333 333 333 332 331 331 330 329 328 327 328 327 325 327 329 330 330 330 330 331 331 329 330 331 330 330 330 329 329 329 330 330 330 330 330 328 328 329 330 331 331 329 329 328 327 327 328 329 329 329 329 329 328 328 328 328 328 328 327 327 326 326 327 327 326 325 325 326
330 334 336 335 332 329 329 332 335 335 335 335 335 335 334 333 333 333 332 333 332 331 330 328 328 328 325 325 326 326 329 331 331 332 331 331 332 331 329 330 331 331 330 331 331 329 329 329 328 328 328 328 327 327 328 329 330 330 330 329 328 328 327 328 328 328 328 329 329 328 328 327 327 327 327 326 325 324 325 326 327 326 325 325 325
328 333 336 335 333 331 330 332 334 335 336 335 335 334 332 333 334 333 332 332 331 330 329 328 328 327 325 325 326 326 330 332 331 331 331 330 331 330 330 329 329 329 328 329 330 329 328 328 327 327 326 326 326 326 327 328 328 329 330 329 327 327 327 328 328 328 328 328 329 328 328 328 328 327 327 326 326 325 325 326 327 326 325 325 324
Wind_Speed
14 15 21 25 25 25 25 23 23 22 22 22 22 21 21 22 22 21 19 18 17 16 16 17 18 18 19 18 18 18 18 18 17 17 16 17 17 18 18 18 19 19 20 20 19 19 18 18 19 20 19 19 20 21 21 21 21 21 21 20 20 20 20 20 19 18 18 17 17 16 16 16 16 15 15 15 14 13 13 13 15 16 17 16 15
15 18 22 25 25 25 24 23 22 21 22 22 22 22 21 22 22 21 19 18 17 17 17 17 17 17 18 18 17 17 17 17 17 16 16 17 17 18 19 19 20 20 20 20 19 19 19 20 20 21 20 20 21 22 21 22 23 22 22 22 22 22 22 21 20 19 18 18 17 16 16 15 15 14 14 14 13 13 12 12 14 16 17 16 15
15 21 24 25 26 25 24 23 22 22 23 23 23 22 21 22 22 21 19 18 18 17 17 16 16 16 16 17 16 16 16 16 16 16 16 16 17 18 19 19 19 20 20 20 19 20 20 21 21 22 21 21 22 22 22 23 23 22 23 23 23 23 22 21 20 19 18 18 17 15 14 14 14 14 13 13 13 13 13 12 13 15 16 15 15
14 22 26 26 26 25 24 22 22 22 22 23 23 22 22 22 21 20 19 18 17 17 17 16 16 15 15 15 15 15 15 16 15 15 15 16 17 19 19 19 20 20 20 19 19 20 21 21 22 22 22 22 22 23 23 23 23 22 23 24 23 24 23 22 20 19 18 17 16 14 13 12 12 12 11 12 13 13 12 12 12 12 13 14 15
16 24 28 27 26 24 23 22 22 22 23 23 23 22 22 21 21 20 19 18 18 17 17 17 16 15 14 14 14 14 14 14 15 14 14 16 18 19 19 19 20 20 20 19 19 21 21 21 22 22 22 22 22 23 23 23 23 22 23 23 24 24 24 23 22 21 21 19 17 14 11 11 10 10 9 9 11 11 10 10 11 11 11 11 12
17 27 29 28 27 24 23 22 22 22 23 23 22 22 21 21 20 19 19 18 18 17 17 17 16 15 14 13 13 13 13 13 14 14 13 15 18 19 19 19 20 20 19 19 19 20 21 21 21 22 22 22 22 22 22 22 21 21 22 23 24 25 24 23 22 21 21 19 19 16 10 9 8 8 7 7 9 10 9 9 9 10 10 9 9
16 28 29 27 27 24 22 21 22 22 23 23 22 22 21 21 19 19 19 18 18 17 17 16 15 15 14 13 13 12 12 12 13 14 13 16 18 18 19 19 19 19 19 19 19 20 21 21 21 21 21 21 22 21 21 21 20 20 21 22 24 26 25 24 21 19 18 15 16 13 10 7 5 5 7 7 8 9 9 9 9 10 10 10 10
14 25 28 26 26 24 22 21 21 22 22 22 22 21 21 20 19 19 18 18 18 17 16 16 15 14 14 13 12 12 11 11 12 12 13 16 18 18 19 19 19 18 18 17 18 19 20 21 21 21 21 21 21 21 21 20 19 19 20 23 25 25 23 21 19 17 17 15 13 6 6 8 8 9 10 10 11 11 10 9 9 10 10 10 11
13 20 22 24 25 23 22 21 21 21 22 22 21 21 20 20 19 19 18 18 18 17 16 15 15 14 13 12 12 12 11 10 11 12 12 15 17 18 18 19 18 18 17 17 17 18 19 20 20 20 20 21 21 21 21 20 19 19 20 23 24 24 22 22 19 17 15 13 11 7 4 9 11 12 12 12 13 12 11 11 10 10 10 11 11
16 19 17 20 25 22 21 20 20 20 20 21 21 20 20 20 19 19 18 18 18 17 16 15 15 14 13 12 12 12 11 11 10 11 11 13 16 16 18 18 18 18 17 17 17 18 19 19 20 20 20 21 21 21 21 21 20 20 22 24 25 24 23 22 21 19 12 9 9 4 4 7 11 13 13 12 12 11 11 12 12 11 11 11 10
19 22 15 17 24 21 20 20 19 19 19 20 20 20 19 19 19 19 19 18 18 17 16 16 14 13 13 12 12 12 12 11 10 10 11 13 14 15 17 18 17 18 18 17 17 18 18 19 20 20 20 20 21 21 21 22 22 23 25 25 24 23 23 21 22 18 9 7 7 3 3 7 11 14 14 14 13 12 12 13 13 12 11 10 10
20 21 12 13 22 20 19 20 19 19 19 19 19 19 19 19 19 19 19 18 17 17 16 15 14 13 12 12 11 12 12 11 10 10 12 14 14 14 15 17 17 18 18 17 18 18 18 19 19 19 20 20 20 21 21 22 24 26 26 24 24 24 23 21 22 16 5 3 3 4 8 11 14 15 16 15 14 15 15 15 14 13 12 11 11
18 18 10 13 21 19 19 19 18 18 18 19 18 18 19 19 19 19 19 18 17 16 16 15 14 13 12 12 11 11 12 10 9 9 11 13 15 14 15 17 17 17 18 18 18 18 18 18 19 19 19 19 19 20 21 23 26 27 25 25 24 24 23 21 21 12 3 2 3 6 11 14 15 16 15 15 15 16 16 16 15 14 14 13 13
17 15 10 16 21 18 19 18 17 18 17 17 17 17 17 18 18 18 18 17 16 16 16 15 15 14 13 12 11 11 11 10 9 9 9 11 14 14 15 17 16 16 17 18 18 18 19 18 18 18 18 18 18 19 21 23 25 25 25 25 24 23 21 21 18 6 1 2 4 7 11 14 15 15 15 15 15 15 15 16 15 15 14 14 14
14 13 11 18 21 17 17 16 16 16 16 15 15 15 15 16 16 17 17 16 16 16 16 16 15 15 14 13 12 12 11 10 8 8 8 10 13 14 14 16 16 16 17 18 18 18 19 19 18 18 17 17 17 18 20 21 22 24 25 24 22 22 20 21 17 3 3 3 4 7 9 13 14 14 15 14 15 15 15 15 15 15 15 15 15
11 11 11 17 19 17 15 13 14 13 13 12 12 13 13 14 15 15 16 16 16 17 16 16 15 14 14 13 13 12 11 10 7 7 8 10 13 14 14 14 15 16 17 18 18 18 18 19 18 18 17 17 17 17 18 19 20 22 23 23 21 20 19 19 15 3 3 2 4 6 9 12 13 14 14 14 14 14 14 15 15 15 15 15 15
13 12 15 20 18 16 13 11 11 10 10 10 10 10 11 12 13 14 15 16 16 16 16 14 14 14 14 13 13 12 10 8 6 6 7 10 13 14 14 14 15 16 17 18 18 18 18 18 17 17 16 16 16 16 16 17 18 19 21 22 20 18 18 20 15 4 2 3 7 7 9 11 12 13 13 13 13 13 14 14 14 15 15 15 15
15 14 20 24 20 17 14 11 8 8 7 7 8 9 10 12 13 14 15 16 15 15 15 14 14 15 14 13 12 11 9 7 6 5 6 10 14 15 14 14 14 16 18 18 18 17 17 17 16 15 15 14 14 14 14 15 16 17 20 20 18 17 17 17 10 6 4 3 6 7 8 10 11 12 11 11 12 12 13 13 13 13 14 14 14
16 18 25 26 23 20 18 15 11 10 9 8 8 8 10 13 14 14 14 15 14 14 14 15 16 16 14 12 11 10 8 6 6 5 6 9 14 16 15 14 14 16 18 18 18 17 16 16 15 14 14 13 13 13 13 14 16 17 19 19 19 17 17 15 6 5 2 2 3 5 6 8 10 11 10 10 11 11 12 12 12 12 12 13 13
19 21 27 27 24 23 21 19 16 14 13 12 11 9 10 12 14 14 14 14 13 14 15 16 16 15 13 10 10 10 8 7 7 6 6 9 14 16 15 14 14 15 17 18 18 17 16 15 14 14 13 13 12 12 12 13 15 17 19 19 18 17 16 12 7 4 2 1 3 3 4 7 8 10 10 10 10 11 11 11 11 11 11 11 12
22 20 24 26 25 26 25 21 18 16 15 15 14 12 12 12 13 13 13 13 14 15 16 16 15 14 12 10 10 9 8 8 8 7 7 10 14 17 16 14 12 13 16 18 18 17 15 14 14 13 13 12 11 11 11 11 13 14 15 15 13 14 12 7 5 5 2 2 2 2 2 4 7 8 9 9 9 10 11 10 10 10 10 10 11
24 22 24 26 26 27 27 24 23 21 18 17 16 16 16 16 14 13 13 13 14 15 16 15 15 13 12 11 10 8 8 7 8 9 8 9 12 15 16 15 12 12 15 17 18 17 15 14 13 12 12 11 10 10 11 10 9 9 10 8 8 12 11 7 2 4 2 3 2 1 1 2 4 7 7 8 8 9 10 9 9 9 9 9 9
24 25 26 27 26 26 27 26 27 26 23 21 19 19 19 18 17 16 16 15 15 15 16 16 14 13 12 11 10 9 9 8 9 9 8 8 10 12 13 14 13 12 14 16 18 17 15 14 13 12 11 10 9 9 9 8 7 7 6 5 8 11 9 7 5 5 3 2 2 1 0 1 3 5 6 6 7 8 9 8 9 9 9 9 9
25 25 27 28 25 25 26 26 27 27 27 25 23 22 21 19 18 17 17 17 17 17 16 16 14 13 12 12 11 12 11 11 11 10 10 10 10 10 10 11 12 12 13 15 18 17 16 15 13 12 11 10 10 8 6 6 6 5 5 6 8 8 9 7 4 7 2 1 1 2 1 2 3 4 5 5 5 6 7 7 8 9 9 9 9
24 26 25 26 26 25 25 25 26 27 28 26 25 24 21 20 19 18 17 18 18 18 17 16 15 14 14 12 12 13 12 12 13 13 12 12 11 10 9 9 10 12 14 15 17 17 16 14 13 11 9 8 8 5 3 4 5 5 5 4 5 7 9 7 5 8 3 3 1 2 1 2 2 3 4 4 4 5 6 6 7 7 8 8 9
22 26 25 24 26 26 25 27 28 28 27 26 26 23 22 22 21 18 18 18 18 18 18 17 16 15 14 13 13 13 13 12 13 13 13 12 11 8 8 8 10 13 14 15 16 16 14 12 10 8 7 5 5 4 4 3 4 2 2 6 5 5 6 7 8 8 5 4 1 2 1 1 2 3 3 3 4 4 5 5 5 6 6 7 8
20 25 25 25 26 26 27 29 30 29 27 26 24 23 22 22 22 19 18 17 18 18 18 16 15 15 14 13 13 13 13 13 14 14 13 12 10 7 6 6 7 12 14 14 13 13 12 9 7 6 7 5 5 7 5 4 4 2 5 7 2 5 6 9 10 6 4 3 1 3 3 2 3 3 3 4 4 5 4 4 5 5 5 6 6
19 24 26 26 27 28 29 29 30 29 28 25 23 22 23 22 22 20 18 16 16 16 15 14 14 14 14 13 13 14 13 13 14 14 13 12 9 7 4 3 3 6 10 11 9 9 10 7 6 7 7 7 6 4 3 4 4 5 9 6 3 6 7 9 10 6 5 4 2 2 3 3 3 3 4 4 5 5 4 4 4 4 4 5 5
16 21 26 27 28 30 31 30 29 28 27 23 21 21 21 21 19 19 18 16 14 13 14 15 14 14 15 15 15 15 14 13 14 14 12 12 10 9 9 8 7 6 8 10 8 9 11 10 9 7 6 7 6 3 2 3 6 10 11 5 2 5 8 9 10 8 7 5 3 2 2 3 3 3 4 5 5 6 5 5 4 4 4 4 5
12 15 23 27 29 30 31 30 28 27 25 23 21 20 19 18 16 18 20 16 13 13 15 17 16 16 16 16 17 16 13 12 13 13 12 11 11 12 14 15 14 12 10 11 11 10 10 12 12 9 7 7 6 6 4 5 7 9 9 6 4 4 7 7 9 10 7 5 4 2 2 3 3 4 4 5 6 6 7 6 6 5 5 5 5
11 12 17 23 28 30 29 28 27 26 25 23 21 19 18 17 16 20 20 16 15 16 17 18 17 17 17 17 17 16 14 13 14 14 13 13 13 13 13 13 13 12 11 10 11 11 10 11 11 10 9 6 5 7 5 8 6 3 2 4 8 7 5 6 8 10 7 5 4 2 1 2 4 4 5 5 7 7 8 8 7 7 6 6 6
11 14 17 21 26 28 27 27 26 25 25 23 20 19 18 18 19 21 21 17 17 19 20 20 18 17 18 18 17 17 17 16 16 16 15 15 15 14 13 12 11 11 11 10 10 10 10 10 10 10 10 8 7 7 6 8 6 4 1 5 6 10 9 6 8 7 5 5 4 3 2 2 4 5 5 6 7 8 9 9 9 9 9 9 8
12 16 19 21 26 28 28 28 24 25 27 23 20 19 18 19 21 22 21 18 18 20 20 19 18 19 19 18 18 20 20 18 17 17 17 17 17 16 14 13 11 11 11 10 9 9 9 9 9 9 9 8 8 6 6 7 6 6 3 5 5 8 9 8 7 6 5 5 4 4 3 2 3 5 6 5 7 8 9 9 11 12 12 12 11
14 18 20 24 27 28 27 28 26 28 29 25 20 19 19 21 21 21 20 17 18 19 17 17 18 19 20 18 19 23 22 19 18 18 16 15 15 14 14 13 11 10 8 8 9 8 8 8 8 8 8 8 7 5 4 5 5 3 4 5 6 7 9 8 7 7 6 5 4 4 3 2 1 4 5 5 5 6 7 8 10 12 12 13 14
14 20 22 24 27 26 24 27 29 28 26 24 21 18 19 20 20 19 18 16 18 18 14 15 17 18 19 18 19 24 22 19 19 18 15 12 12 11 10 10 8 7 7 8 8 7 6 5 7 8 8 7 6 6 6 6 5 3 4 6 6 7 8 8 8 8 7 5 5 4 4 3 3 3 4 5 5 5 6 5 7 8 9 11 12
14 20 22 23 26 25 23 25 27 25 22 20 19 17 17 18 19 18 17 17 18 16 12 14 15 16 19 19 20 24 23 20 19 19 14 12 12 11 9 7 7 8 8 8 8 7 6 6 8 7 8 7 5 7 8 7 6 5 5 6 5 6 7 8 8 8 7 6 5 5 5 4 5 4 3 4 5 5 5 4 5 6 6 7 8
14 18 22 24 25 23 21 21 22 21 19 19 18 17 17 18 18 17 16 17 17 15 13 14 15 15 18 20 22 23 22 20 19 18 14 12 13 13 11 9 10 10 10 10 9 8 7 8 9 7 8 9 8 8 5 4 5 4 4 5 5 5 6 7 7 8 7 6 5 6 5 5 6 5 4 4 5 5 5 5 4 5 5 5 5
13 17 21 24 23 20 20 20 19 19 19 19 18 17 17 17 17 16 16 17 17 16 14 14 15 15 17 20 23 23 21 20 17 16 14 14 14 14 13 12 11 10 10 12 10 9 10 10 10 8 8 9 9 8 5 4 4 5 5 4 5 6 6 7 7 8 7 6 6 5 5 6 6 6 6 5 5 6 5 5 5 5 5 4 4
14 17 21 21 20 19 19 19 19 20 19 19 18 17 16 16 16 16 16 17 17 15 13 13 14 16 18 19 22 21 19 19 17 15 15 15 15 14 14 13 12 10 11 12 9 8 10 11 11 10 8 7 8 9 8 6 5 5 5 5 6 7 7 8 7 7 7 7 6 5 5 6 6 7 7 5 5 6 6 5 5 5 4 4 4
14 18 19 19 19 17 16 16 17 18 18 18 17 16 16 17 17 17 16 17 16 12 11 11 13 15 17 18 20 19 19 18 17 17 17 16 15 14 13 12 12 11 11 11 10 9 10 10 11 10 9 8 9 9 8 8 7 6 6 7 8 6 6 7 7 6 7 7 7 6 6 7 6 6 7 7 6 6 6 6 5 5 4 5 4
14 17 17 17 17 16 14 14 14 15 16 16 16 16 17 17 16 15 15 15 13 10 9 10 12 14 16 18 18 18 19 18 16 16 16 16 15 14 13 12 12 12 11 12 12 11 10 11 10 9 9 8 7 7 8 8 7 7 7 7 7 6 7 7 7 6 6 7 6 5 6 6 7 7 7 8 7 7 7 6 6 5 5 5 4
14 15 16 15 15 15 13 12 13 14 15 15 15 16 15 14 13 12 12 11 8 9 11 12 12 14 16 17 17 17 18 18 16 14 14 15 14 13 13 12 13 12 13 14 12 11 11 10 9 9 9 8 6 7 8 8 7 7 7 8 8 8 7 7 7 6 6 7 6 5 5 6 8 8 8 8 7 7 6 6 6 5 5 5 4
12 14 15 15 14 13 11 11 12 13 14 13 13 12 12 12 11 10 9 7 6 8 11 11 11 13 14 15 15 15 17 17 15 14 14 15 14 12 12 13 13 12 13 13 11 10 10 9 9 8 8 7 5 6 8 8 8 8 8 8 9 9 8 7 7 6 7 8 6 5 5 6 8 8 7 7 6 7 6 5 6 6 6 5 5
11 13 13 15 15 14 12 12 13 13 14 14 12 10 10 11 11 9 8 6 5 6 9 11 12 12 13 15 15 15 16 15 15 14 14 15 14 12 12 13 13 12 11 11 11 10 9 9 9 8 8 8 6 6 8 8 8 8 9 8 7 8 7 7 8 7 7 9 8 6 5 6 7 7 7 7 6 6 6 5 5 5 6 6 5
12 16 16 17 17 15 13 14 15 15 15 16 15 13 12 14 13 12 11 10 8 9 10 10 12 13 12 15 17 16 16 14 14 14 14 15 15 13 15 14 12 11 10 10 10 9 10 9 9 8 9 9 8 7 7 8 9 8 8 7 6 5 6 9 9 8 7 8 8 7 7 6 7 8 7 7 6 5 4 4 5 4 5 4 3
17 19 18 17 15 14 13 14 16 16 16 18 17 14 14 15 14 14 14 13 12 11 11 10 11 13 13 14 16 17 15 14 13 14 14 14 14 14 15 13 11 10 10 11 10 10 10 8 9 9 9 9 9 8 7 9 9 8 7 7 6 5 8 11 9 8 9 9 8 8 7 7 7 9 8 7 6 5 4 3 3 4 4 4 4
20 21 20 17 15 14 15 15 16 16 17 19 17 14 14 14 14 13 12 13 12 12 13 11 10 13 14 13 15 15 14 12 12 13 13 13 14 14 12 11 11 10 10 11 10 10 9 8 9 10 9 9 10 9 8 8 8 7 6 6 6 5 8 11 10 10 11 10 9 8 7 7 7 8 7 7 6 5 5 4 3 3 2 4 4
20 22 22 20 18 16 15 16 16 17 18 18 16 14 14 15 15 13 11 12 13 13 14 13 12 13 14 14 14 13 13 12 12 13 12 11 12 13 12 10 11 10 9 8 8 10 10 9 9 10 9 9 10 10 8 8 8 7 7 7 6 6 9 11 9 10 11 11 10 8 7 8 8 8 7 6 5 5 5 5 4 5 4 4 4
20 22 23 21 20 18 16 16 17 18 18 18 16 14 15 15 15 14 13 14 13 14 15 15 15 15 14 15 13 13 13 13 12 11 10 10 10 11 11 10 10 10 9 8 8 9 9 9 9 8 9 9 9 9 9 9 8 7 8 8 6 7 10 11 9 8 10 11 11 9 9 8 8 7 5 4 4 4 6 6 5 6 5 5 4
20 22 24 24 23 20 18 18 18 20 20 18 16 15 16 15 15 15 16 16 16 15 16 17 17 15 15 15 15 15 15 14 13 11 10 11 11 11 11 11 11 9 8 8 8 8 9 8 8 7 7 8 8 9 10 10 8 6 7 8 8 8 9 10 9 9 9 9 10 10 10 9 8 7 5 4 5 6 8 7 6 6 5 5 5
19 22 24 26 26 22 20 19 20 21 21 19 18 17 17 16 16 16 16 18 18 18 19 18 17 17 16 17 17 17 15 14 14 13 13 13 11 11 11 11 12 10 8 8 7 6 7 8 7 6 6 7 7 8 10 9 8 7 7 7 8 9 9 9 9 9 10 9 9 11 11 9 7 7 7 7 8 9 10 8 6 7 6 5 6
Wind_Direction
166 177 177 169 164 158 156 154 155 154 152 153 151 154 153 151 146 143 140 136 134 136 143 148 146 143 141 139 137 137 135 133 130 129 126 121 116 113 111 109 106 101 97 93 90 87 84 85 88 96 105 106 107 110 110 110 110 106 97 93 93 92 91 90 88 87 87 88 88 88 88 87 85 83 82 80 77 77 80 84 87 90 84 80 77
169 172 178 171 166 160 157 156 157 155 154 155 154 156 156 152 148 145 141 138 136 137 142 146 147 144 144 143 142 140 138 137 135 133 130 124 119 117 114 110 107 102 99 96 94 91 88 88 91 96 103 104 105 110 110 111 111 104 95 93 93 92 91 90 89 87 86 84 83 83 84 85 84 84 79 72 71 73 78 88 93 92 86 82 79
167 169 177 171 167 161 158 158 157 156 157 156 158 158 157 155 150 148 143 141 138 138 142 144 146 144 144 145 146 143 142 142 140 137 134 129 125 122 117 113 110 105 102 100 99 95 92 91 94 97 102 103 105 110 111 114 113 104 98 95 93 91 88 87 86 84 83 81 79 79 79 80 81 80 75 69 68 72 77 87 94 95 93 88 83
169 172 173 171 166 161 159 158 159 158 158 158 160 160 159 157 152 150 146 144 141 140 142 144 145 142 143 145 148 147 146 145 145 143 139 135 130 127 122 119 113 108 105 105 104 100 97 94 96 98 101 103 105 110 113 117 115 107 100 96 91 87 83 80 79 77 77 74 73 74 73 72 77 77 72 72 69 69 76 86 95 99 103 96 91
177 176 170 169 164 161 161 158 160 158 159 160 161 162 161 159 156 153 150 147 143 142 143 145 146 144 142 142 148 150 150 149 150 150 146 141 134 131 128 124 116 111 111 110 109 104 101 98 98 99 102 105 107 110 114 118 117 110 102 95 90 84 79 76 74 70 67 63 55 52 65 70 69 72 68 71 74 74 77 86 96 101 105 101 100
175 174 169 167 163 161 161 158 160 158 160 161 163 164 163 162 160 157 154 151 146 145 145 147 148 146 143 141 146 149 152 151 154 157 154 147 139 135 133 127 120 116 115 114 112 107 104 102 101 102 104 106 109 111 115 119 118 113 103 95 91 83 76 73 70 66 63 61 53 38 40 62 60 65 64 69 80 84 86 92 97 97 96 95 99
161 169 168 166 163 159 159 159 159 159 160 161 164 165 165 166 164 161 158 154 151 149 148 148 148 147 146 143 145 148 151 151 156 160 157 152 142 138 136 131 127 123 121 118 114 112 108 106 105 105 106 108 110 113 115 119 119 115 106 97 91 83 76 72 65 61 57 56 65 44 6 22 51 73 67 75 89 89 93 94 93 91 90 91 93
151 165 167 166 163 157 158 159 159 159 160 162 165 167 168 169 167 165 162 158 156 154 152 150 149 148 148 147 146 149 149 150 155 160 161 154 145 141 140 135 134 130 126 123 119 116 113 110 110 109 110 111 113 115 117 119 119 116 108 97 89 81 75 71 64 64 63 62 85 81 343 13 54 76 72 77 86 88 92 95 90 86 86 86 88
145 155 160 166 162 155 156 157 159 158 159 163 166 170 171 172 171 170 167 163 162 160 157 154 153 150 149 151 150 151 152 154 157 164 167 154 147 146 142 139 140 137 131 129 125 120 117 116 114 114 114 114 115 117 118 120 118 114 107 98 88 82 76 73 69 71 74 86 114 116 25 31 53 70 72 73 77 78 79 84 87 84 80 78 80
142 148 154 164 159 152 154 156 158 157 159 163 167 172 174 175 175 174 172 169 169 165 161 160 157 153 152 155 155 155 155 159 163 167 170 155 150 150 144 143 145 141 136 133 129 124 122 121 119 117 116 116 116 117 119 119 118 112 106 99 91 87 84 82 79 80 86 117 146 137 25 34 59 67 70 70 70 71 69 74 78 79 77 74 78
146 154 160 160 153 149 153 155 157 157 159 164 169 174 177 178 179 178 178 176 174 168 165 164 160 157 156 159 160 159 159 163 167 166 170 164 157 157 149 145 147 144 141 138 134 130 128 126 121 120 118 118 117 118 120 120 119 113 106 99 94 91 89 86 83 84 96 128 153 165 65 68 75 74 73 73 71 74 76 76 75 76 75 75 78
151 159 169 158 148 148 152 155 155 156 160 166 171 176 180 181 182 182 182 181 176 171 167 163 163 163 161 164 165 166 166 163 170 167 168 169 164 163 153 146 147 145 146 143 140 137 132 128 124 123 120 119 119 120 121 122 120 113 106 100 98 94 90 87 84 85 94 113 115 98 90 89 86 82 79 78 78 80 80 79 76 76 75 74 77
150 156 166 157 148 148 152 153 154 157 162 168 174 178 182 184 185 185 185 182 176 171 166 165 167 168 168 167 167 169 165 163 176 164 158 170 169 167 157 149 148 146 147 148 145 140 135 131 128 125 123 122 120 121 122 122 120 114 109 104 99 94 91 87 84 91 111 100 89 91 96 95 91 88 86 84 83 83 82 82 79 77 75 74 75
136 142 144 150 146 146 151 153 154 159 163 169 176 180 185 187 187 187 185 181 175 172 168 169 170 171 173 171 169 168 162 167 179 162 154 169 172 172 163 153 151 149 149 150 147 141 138 134 131 128 126 124 122 122 122 123 122 115 110 104 99 94 92 88 86 91 109 79 77 91 101 98 95 93 91 89 86 84 85 84 82 79 77 76 77
119 120 124 146 144 145 152 153 157 161 165 170 176 181 186 187 187 187 184 180 176 175 173 173 172 173 175 170 164 161 159 163 170 167 167 171 175 178 166 158 157 153 153 153 148 144 142 138 135 132 130 128 126 125 124 127 122 114 109 104 101 98 95 93 94 76 345 54 76 92 105 102 100 98 94 92 90 89 88 87 84 81 79 78 79
120 116 127 149 144 144 148 150 159 159 163 169 174 180 183 184 185 185 182 179 177 176 176 175 174 173 170 163 157 155 156 153 156 170 176 174 178 181 172 166 163 159 157 154 151 150 146 142 138 135 134 131 130 130 129 129 123 115 111 106 103 101 100 97 97 77 330 79 103 104 108 102 101 100 97 95 94 93 90 90 87 84 82 81 80
133 136 146 156 146 138 141 145 157 156 162 168 171 176 175 178 180 181 180 177 177 177 175 174 171 165 161 160 155 152 153 147 147 163 174 178 182 183 179 174 169 163 159 157 157 154 150 146 142 139 136 133 133 132 131 131 125 119 116 112 108 104 104 100 101 135 222 117 103 102 107 104 103 101 100 98 97 96 93 92 90 89 86 83 82
138 146 153 157 147 137 140 140 145 147 155 165 167 169 166 172 175 176 176 174 177 175 172 170 164 158 156 158 155 152 156 151 144 160 172 181 185 186 184 182 176 166 163 163 161 158 154 150 146 141 135 132 131 128 128 128 125 123 118 114 108 104 102 98 110 184 204 124 96 97 108 108 105 103 101 100 98 97 95 93 91 90 89 87 83
146 152 153 157 152 147 150 147 148 150 153 154 153 161 165 170 171 173 174 174 175 171 167 164 159 157 159 162 159 158 167 160 151 166 173 180 186 187 188 189 180 168 168 168 165 163 158 154 150 143 136 133 129 124 123 123 125 123 116 109 104 101 97 98 134 213 215 130 100 97 115 112 106 103 100 99 98 96 93 91 89 87 87 86 83
153 157 158 164 162 157 156 157 165 166 160 151 147 158 167 171 172 174 175 174 172 167 164 161 160 161 164 167 161 161 168 162 156 168 171 177 186 189 194 194 184 173 171 172 170 168 164 160 156 147 141 137 133 127 122 123 126 123 117 112 110 109 105 120 179 236 288 164 111 95 116 111 103 98 95 96 96 95 92 88 87 85 82 81 81
156 159 162 165 163 163 164 167 174 171 159 149 152 159 163 169 173 177 176 173 170 167 166 165 165 165 167 164 159 161 164 162 159 167 173 178 188 191 197 197 187 179 177 175 173 172 167 165 162 153 147 143 140 134 131 132 130 128 124 116 114 108 101 128 218 272 286 162 116 90 100 99 98 93 91 93 94 94 94 93 90 87 84 81 80
157 159 163 164 165 169 172 173 173 176 171 161 160 160 159 164 168 175 176 175 173 171 171 169 169 170 167 161 158 160 164 167 166 173 179 180 187 192 201 202 190 183 182 177 175 175 171 170 166 157 151 149 148 145 141 139 139 142 129 115 109 96 90 111 196 289 11 99 110 112 102 85 92 90 87 87 88 88 90 93 91 89 86 83 82
163 163 165 169 173 172 174 174 173 178 177 170 164 158 158 162 167 176 176 176 177 177 177 173 173 174 167 164 164 166 169 172 175 182 186 182 186 193 205 207 197 189 183 180 179 176 175 176 169 164 160 155 158 152 148 149 150 149 134 124 102 98 115 139 191 259 346 80 115 86 110 80 82 87 86 84 83 84 87 90 90 89 86 84 82
171 171 170 173 178 176 174 173 172 172 169 165 163 159 158 161 168 177 178 179 182 182 179 175 174 174 171 172 173 172 174 176 181 187 189 188 189 195 206 209 203 197 189 184 183 180 181 181 176 174 167 165 166 152 155 164 160 156 142 118 96 116 149 137 207 251 305 250 149 72 85 81 71 76 82 85 85 85 86 87 87 87 86 87 87
176 177 175 175 181 181 174 172 173 169 164 162 162 160 159 160 166 175 183 186 185 184 181 178 175 175 177 180 178 177 182 182 185 190 193 195 194 199 207 211 209 201 194 188 186 186 185 185 182 177 170 173 162 149 201 201 195 180 153 150 141 160 160 142 228 259 284 250 209 81 75 69 70 73 77 85 86 84 84 83 84 85 86 90 91
179 179 181 179 183 182 176 176 175 169 164 164 161 160 162 162 164 172 187 189 185 184 182 180 178 179 182 185 184 184 189 191 192 194 196 199 198 204 211 221 223 207 197 192 190 190 190 189 187 178 172 167 152 190 239 254 255 215 211 239 195 149 164 185 226 256 267 241 190 110 117 102 88 76 79 82 83 82 82 81 80 82 83 86 88
177 181 186 183 181 180 177 175 172 168 167 167 164 162 163 162 163 173 189 189 185 185 180 182 183 183 186 189 190 189 193 198 198 196 198 200 198 200 210 232 225 202 195 194 193 193 195 190 189 189 184 183 191 204 208 231 274 296 269 263 181 144 182 204 218 236 253 242 173 133 134 118 90 72 71 67 73 78 75 76 74 74 75 78 81
175 184 189 186 182 179 180 177 172 171 170 169 167 165 164 162 164 176 189 189 190 187 179 186 188 185 188 190 193 193 194 200 200 197 197 197 192 183 194 256 236 194 185 186 188 183 181 179 190 208 206 200 196 196 186 222 251 239 250 260 208 204 198 210 222 224 237 239 221 146 109 91 81 67 62 58 62 71 72 71 70 71 70 72 76
175 187 191 191 187 181 182 181 177 175 172 169 168 166 165 165 172 182 187 187 193 192 185 193 194 192 195 193 192 192 194 200 200 196 196 193 188 176 176 193 209 206 180 178 186 173 168 177 195 209 203 191 182 176 196 237 232 225 242 254 184 182 178 205 222 220 228 222 213 170 93 77 75 68 68 68 66 67 68 68 66 71 71 74 77
182 190 192 194 192 185 184 183 180 177 171 168 167 168 169 173 180 183 184 187 193 195 194 198 199 198 198 195 189 186 189 198 201 195 195 190 183 178 178 187 198 200 186 180 187 179 176 187 198 201 181 180 175 160 188 227 217 221 241 239 209 158 154 184 209 215 218 210 206 186 118 80 75 76 80 80 76 70 66 66 66 68 69 73 77
200 195 192 196 193 186 185 184 183 178 171 169 171 175 179 184 186 183 186 191 192 195 198 200 203 202 199 195 188 188 188 195 203 195 190 187 181 179 179 189 195 192 188 184 183 182 187 189 189 189 168 167 164 145 201 233 218 229 246 206 218 226 196 152 183 209 212 205 197 172 156 88 74 73 80 82 76 73 73 72 74 77 77 77 77
197 192 189 192 188 183 183 182 181 178 175 175 178 181 184 190 188 186 190 193 192 194 197 199 204 204 200 197 195 197 193 192 200 194 194 191 184 182 178 186 191 187 192 190 185 184 186 182 174 176 167 168 173 160 212 235 235 251 129 128 190 218 222 168 165 195 196 188 184 185 196 107 80 72 76 83 78 78 84 87 86 85 83 79 78
174 180 181 179 177 177 177 176 178 182 181 181 183 182 184 192 190 189 193 193 193 195 198 199 202 204 201 200 201 202 197 192 192 191 199 195 185 186 183 186 188 190 198 190 185 181 178 181 177 180 179 179 175 176 221 223 220 236 181 135 158 191 211 192 170 177 169 175 201 208 189 140 96 80 78 84 85 85 90 96 92 85 82 81 79
170 175 173 171 171 176 178 176 179 184 184 183 184 184 185 191 192 192 196 195 196 195 197 200 200 200 199 200 199 200 199 195 194 195 201 200 190 187 183 184 188 195 198 183 181 181 182 187 183 185 188 191 186 186 209 170 163 208 174 141 135 163 190 189 184 180 167 175 197 205 193 183 152 103 89 89 95 97 98 99 94 87 84 84 81
178 172 168 170 171 177 184 182 182 184 185 184 185 188 188 191 192 194 196 197 197 194 196 203 201 199 199 198 194 197 201 201 203 205 206 207 203 200 193 186 186 194 195 191 187 181 188 186 179 183 178 185 188 186 201 185 168 163 139 126 128 157 173 178 182 172 166 178 179 192 210 206 183 148 107 100 101 108 113 106 99 95 91 89 86
179 171 170 173 170 175 180 179 182 184 187 187 188 192 193 195 196 196 197 197 197 189 190 206 201 195 197 196 194 198 202 205 209 212 212 210 209 215 218 201 186 191 193 194 187 174 183 174 167 173 164 163 176 189 206 208 193 170 134 129 144 152 153 170 180 174 178 191 189 197 205 198 189 171 138 121 104 104 127 123 111 110 104 101 95
179 173 172 172 165 169 175 176 182 184 188 191 192 195 196 199 201 201 198 195 189 173 177 205 199 188 193 195 197 200 200 206 210 210 211 210 212 216 216 209 198 195 190 183 181 182 193 184 166 162 166 173 188 195 185 165 169 171 152 153 177 172 150 162 175 184 189 189 190 194 193 193 193 180 165 148 112 100 120 130 121 115 114 116 115
180 171 169 170 161 162 173 180 183 186 191 193 193 194 196 202 206 207 202 194 182 166 174 203 204 198 197 197 200 202 201 205 205 202 202 206 215 214 208 207 201 197 195 187 183 191 202 198 178 171 182 184 191 186 155 147 152 146 155 161 183 181 158 158 169 180 183 182 188 187 188 193 193 188 180 163 131 110 111 124 124 117 115 113 116
174 165 166 170 162 159 171 179 181 188 193 193 191 192 197 203 211 214 208 200 190 180 184 196 208 209 201 197 198 200 201 200 200 200 200 205 211 211 207 207 205 202 205 201 192 193 202 200 188 185 192 179 177 174 152 161 167 158 167 154 161 168 154 159 163 164 167 176 194 193 189 191 186 186 180 164 143 132 129 128 124 116 112 114 119
169 164 160 162 160 157 169 181 183 187 190 191 189 189 198 205 212 215 209 205 201 194 190 193 209 208 197 194 191 193 197 195 198 201 199 203 207 209 209 208 208 208 209 211 201 196 204 200 189 188 191 171 166 175 169 177 184 174 161 141 150 158 147 160 162 159 168 178 192 194 186 184 178 180 176 160 150 150 146 136 131 121 112 118 123
168 163 155 155 158 157 167 181 186 190 191 194 193 193 203 209 212 214 208 205 203 199 194 196 205 200 194 193 189 191 194 192 193 197 196 202 206 207 209 209 212 213 210 211 205 201 209 205 194 189 188 181 169 170 173 181 181 166 157 146 148 149 144 155 161 163 170 168 169 168 171 171 164 166 165 155 157 160 143 133 137 132 126 126 121
167 161 155 154 155 156 161 173 183 195 199 200 204 206 211 216 217 217 212 199 193 203 198 191 193 193 190 188 190 192 192 193 193 194 198 203 205 204 209 213 213 213 207 206 206 200 202 201 198 192 184 186 183 171 171 178 172 160 156 147 141 142 144 147 151 157 153 150 156 153 150 153 149 149 152 151 162 169 148 134 138 135 132 133 134
165 161 160 157 157 158 163 182 194 199 200 204 214 217 216 221 223 219 215 196 184 204 197 186 183 187 185 179 185 189 188 192 192 195 202 202 206 207 212 216 212 211 205 201 204 200 200 197 193 188 175 174 178 170 173 180 175 160 151 144 141 138 139 140 138 138 136 137 144 136 132 148 147 143 145 144 153 161 146 132 137 135 131 134 139
174 177 176 172 174 177 186 203 210 205 201 208 216 213 207 211 216 214 209 199 187 188 177 172 172 177 180 176 179 184 182 184 187 197 203 200 207 208 207 211 208 209 200 197 209 208 202 197 187 176 162 165 174 169 177 189 184 169 157 153 150 139 141 153 140 129 127 128 129 126 131 145 145 142 141 139 148 155 142 135 140 134 129 129 128
204 204 198 195 194 195 205 210 208 204 200 208 214 210 208 206 205 201 192 191 197 191 173 166 172 173 172 169 171 175 178 182 189 198 202 203 208 204 202 204 202 205 203 204 212 198 189 190 183 175 167 172 180 171 178 195 192 185 174 159 159 155 155 160 146 127 120 121 125 128 136 143 147 151 149 145 152 153 145 146 145 140 141 142 141
215 216 211 208 208 205 209 204 197 195 193 205 214 211 210 208 204 198 187 187 197 193 177 166 172 174 167 158 159 165 175 185 192 198 203 207 209 205 202 196 190 199 200 199 200 185 183 186 178 179 181 182 184 177 179 191 190 187 179 160 163 169 159 156 149 134 122 118 125 130 135 142 144 151 155 153 153 151 157 163 146 144 153 163 173
208 215 218 214 218 217 211 202 191 189 194 203 212 210 208 208 204 196 186 185 188 184 175 165 162 170 169 160 158 166 177 186 192 197 199 200 202 198 190 182 182 190 188 188 193 189 186 185 179 182 190 187 183 186 186 182 186 187 174 161 158 158 162 162 154 146 136 127 130 131 134 140 139 141 144 146 147 149 158 161 149 147 140 148 160
199 211 223 219 224 228 217 207 195 193 199 202 205 209 209 206 200 192 186 181 178 178 175 168 162 164 167 167 165 172 182 190 195 193 184 183 192 183 171 174 178 178 179 182 185 186 186 186 184 183 192 195 186 192 195 173 177 187 171 160 152 150 166 167 154 150 149 141 139 139 141 143 140 133 128 129 133 141 145 140 143 146 138 140 151
195 210 225 224 226 229 217 207 200 197 202 202 202 206 205 201 196 191 184 175 171 173 169 164 165 163 165 169 170 176 184 186 187 185 172 176 187 172 163 175 176 169 173 175 173 178 181 184 192 192 198 206 194 191 193 174 174 183 169 165 163 155 162 165 160 160 159 149 146 155 156 148 140 134 132 128 122 132 138 136 136 135 136 143 151
201 211 224 225 220 219 210 203 201 200 203 203 200 198 197 196 196 190 182 176 173 170 165 163 166 166 168 172 170 176 180 174 175 179 174 180 184 170 168 174 166 157 162 171 172 172 170 175 191 200 201 208 204 197 196 189 184 180 172 177 178 163 158 163 168 170 166 154 152 161 159 152 150 146 140 129 123 130 135 137 133 124 129 136 136
208 213 220 223 219 215 209 201 200 203 204 201 192 189 193 195 194 187 181 180 175 168 166 166 169 169 170 171 168 172 175 171 175 178 175 178 177 169 171 168 155 150 161 164 160 163 164 167 175 175 177 188 193 194 198 200 195 179 175 185 182 169 160 164 168 170 173 166 158 156 149 149 157 146 136 125 120 126 132 137 139 129 131 132 127